Hourly Data Report for October 22, 2015

All times are specified in Local Standard Time (LST). Add 1 hour to adjust for Daylight Saving Time where and when it is observed.

WINNIPEG A CS
MANITOBA

49°55'00.000" N
97°14'58.000" W
238.70 m
502S001
71849
XWG

Download Data

Hourly Data (October 2015)
Hourly Data Report for October 22, 2015
Temp Definition
°C
Dew Point Temp Definition
°C
Rel Hum Definition
%
Wind Dir Definition
10's deg

Wind Spd Definition
km/h
Visibility Definition
km
Stn Press Definition
kPa
Hmdx Definition


Wind Chill Definition


Weather Definition


TIME
00:00 -1.1 -1.9 95 1 8   99.21   -4 LegendNANA
01:00 -2.5 -3.2 95 35 7   99.25   -5 LegendNANA
02:00 -1.0 -1.0 100 28 7   99.30   -4 LegendNANA
03:00 -2.7 -2.9 98 28 5   99.35   -5 LegendNANA
04:00 -5.1 -6.0 94 30 4   99.38   -7 LegendNANA
05:00 -4.2 -4.2 100 35 4   99.39   -6 LegendNANA
06:00 -3.9 -4.1 99 2 3   99.41   -5 LegendNANA
07:00 -3.6 -3.7 100 6 7   99.42   -7 LegendNANA
08:00 -0.8 -1.0 99 8 5   99.46   -2 LegendNANA
09:00 3.1 0.8 85 11 10   99.47     LegendNANA
10:00 6.1 2.0 75 14 13   99.53     LegendNANA
11:00 8.0 2.3 67 16 15   99.52     LegendNANA
12:00 10.3 2.7 59 17 19   99.48     LegendNANA
13:00 12.1 3.3 55 16 19   99.36     LegendNANA
14:00 13.7 3.5 50 15 21   99.27     LegendNANA
15:00 14.2 3.3 48 14 20   99.16     LegendNANA
16:00 14.3 3.6 49 15 19   99.12     LegendNANA
17:00 12.1 3.7 57 16 15   99.10     LegendNANA
18:00 10.1 3.6 64 14 15   99.06     LegendNANA
19:00 9.1 3.3 67 15 16   99.03     LegendNANA
20:00 9.6 3.1 63 15 20   98.97     LegendNANA
21:00 9.5 3.0 64 15 24   98.96     LegendNANA
22:00 8.4 3.0 69 16 21   98.94     LegendNANA
23:00 7.8 2.7 70 16 22   98.92     LegendNANA

Notes on Data Quality.

Legend

  • E = Estimated
  • M = Missing
  • NA = Not Available
  • ‡ = Partner data that is not subject to review by the National Climate Archives
Date modified: